Content
SEND FEEDBACK

Daily
Averages
Monthly
Summary
United States of America

SOUTH LAKE TAHOE, CALIFORNIA


Home > North America > United States > California
Elevation: 1908 meters     Latitude: 38 53N     Longitude: 119 59W

WEATHER
 
SELECT A DAY
Number of Records: 176,955;   Date Range: 1/1/95 - 10/19/14
 
SHARE

PRINT THIS DATA

[ ← Previous Day ]
WEATHER ALMANAC - 22 MAY, 2013
[ Next Day → ]
[ °F ]   °C
Weather ElementAverageHighLow
Temperature8 °C12.8 °C (11:53 am)-1.1 °C (11:53 pm)
Dewpoint-8.7 °C-5 °C (4:53 am)-13.9 °C (11:53 am)
Humidity32.5 %61 % (11:53 pm)15 % (11:53 am)
Barometer1008.1 hPa1010.2 hPa (10:53 pm)1006.8 hPa (5:53 am)
Wind Speed11.7 km/h27.8 km/h (12:53 pm)
Wind Gust40.7 km/h (12:53 pm)
Weather ElementAverage
Visibility16.1 km
Wind DirectionESE (123.5 °)

Weather ElementTotal
Precipitation---
Heating Degree Days12.5 (Base 18.3)
Averaged from 23 records on 22 May, 2013
WEATHER CONDITIONS BREAKOUT
WIND DIRECTION BREAKOUT
WEATHER BY HOUR - 22 MAY, 2013
[ °F ]   °C
Local TimeTemperatureDewpointHumidityBarometerVisibilityWind DirectionWind SpeedGust SpeedPrecipitationEventsConditions
1:53 AM7.2 °C-6.7 °C37 %1007.5 hPa16.1 kmSSE (150°)14.8 km/hClear
2:53 AM7.2 °C-8.9 °C31 %1007.1 hPa16.1 kmCalmClear
3:53 AM5.6 °C-8.9 °C35 %1007.5 hPa16.1 kmESE (110°)5.6 km/hClear
4:53 AM5.6 °C-5 °C47 %1007.1 hPa16.1 kmSSE (150°)9.3 km/hClear
5:53 AM5.6 °C-6.7 °C41 %1006.8 hPa16.1 kmSE (130°)13 km/hClear
6:53 AM7.2 °C-10 °C29 %1006.8 hPa16.1 kmSouth (170°)16.7 km/h31.5 km/hClear
7:53 AM8.9 °C-8.9 °C28 %1006.8 hPa16.1 kmSouth (170°)16.7 km/hClear
8:53 AM9.4 °C-6.1 °C33 %1007.5 hPa16.1 kmSouth (180°)14.8 km/hClear
9:53 AM10.6 °C-8.3 °C26 %1007.8 hPa16.1 kmVariable9.3 km/h31.5 km/hClear
10:53 AM11.1 °C-8.3 °C25 %1007.8 hPa16.1 kmSW (220°)11.1 km/h29.6 km/hClear
11:53 AM12.8 °C-13.9 °C15 %1007.5 hPa16.1 kmSouth (190°)24.1 km/h37 km/hClear
12:53 PM12.8 °C-8.9 °C22 %1007.5 hPa16.1 kmSouth (190°)27.8 km/h40.7 km/hClear
1:53 PM12.8 °C-8.9 °C22 %1007.8 hPa16.1 kmSSW (210°)16.7 km/h37 km/hPartly Cloudy
2:53 PM11.7 °C-11.1 °C20 %1008.1 hPa16.1 kmSSW (210°)16.7 km/h37 km/hClear
3:53 PM11.7 °C-10.6 °C20 %1008.5 hPa16.1 kmSW (220°)13 km/h31.5 km/hClear
4:53 PM11.1 °C-11.1 °C20 %1008.8 hPa16.1 kmSouth (180°)22.2 km/h35.2 km/hClear
5:53 PM9.4 °C-11.1 °C23 %1009.1 hPa16.1 kmSouth (190°)18.5 km/hClear
6:53 PM8.3 °C-10 °C27 %1008.8 hPa16.1 kmVariable9.3 km/hClear
7:53 PM6.1 °C-7.8 °C37 %1009.5 hPa16.1 kmCalmClear
8:53 PM4.4 °C-7.2 °C43 %1009.5 hPa16.1 kmCalmClear
9:53 PM3.9 °C-6.7 °C46 %1009.8 hPa16.1 kmSouth (170°)9.3 km/hClear
10:53 PM1.1 °C-6.1 °C59 %1010.2 hPa16.1 kmCalmClear
11:53 PM-1.1 °C-7.8 °C61 %1010.2 hPa16.1 kmCalmClear
Hourly data recorded from KTVL, located 0 kilometers away from South Lake Tahoe, California







STORIES FROM OUR PARTNERS